Location: Cambridge (historical)
(38.6883°N, 119.0140°W)
Time: 10:16:23
(UTC+00:00)

XW-2D - Pass Details

Date: 25 September 2021
Orbit: 503 x 524 km, 97.5° (Epoch: 18 October)

Event Time Altitude Azimuth Distance (km) Brightness Sun altitude
Rises 13:05:48 0° 28° (NNE) 2,626 ? -8.8°
Reaches altitude 10° 13:08:19 10° 45° (NE) 1,731 ? -8.3°
Maximum altitude 13:11:08 20° 95° (E) 1,208 ? -7.8°
Drops below altitude 10° 13:13:56 10° 144° (SE) 1,713 ? -7.2°
Sets 13:16:24 0° 161° (SSE) 2,589 ? -6.8°
